Regional Weather Roundup
Issued by NWS Sioux Falls, SD

Home | Current Version | Previous Version | Graphics & Text | Print | Product List | Glossary On
Versions: 1 2 3 4 5 6 7 8 9 10 11 12 13 14 15 16 17 18 19 20 21 22 23 24 25 26 27 28 29 30 31 32 33 34 35 36 37 38 39 40 41 42 43 44 45 46 47 48 49 50
000
ASUS43 KFSD 010210
RWRFSD

WEATHER ROUNDUP FOR SE SOUTH DAKOTA/SW MINNESOTA/NW IOWA
NATIONAL WEATHER SERVICE SIOUX FALLS SD
800 PM CST SAT FEB 28 2015

NOTE: "FAIR" INDICATES FEW OR NO CLOUDS BELOW 12,000 FEET WITH NO
SIGNIFICANT WEATHER AND OR OBSTRUCTIONS TO VISIBILITY.


SDZ038>040-050-052>070-010300-
SOUTHEAST SOUTH DAKOTA

CITY           SKY/WX    TMP DP  RH WIND       PRES   REMARKS
CHAMBERLAIN    CLEAR     22  11  62 CALM      30.19R
HURON          CLEAR     19  13  77 NW10      30.19R WCI   7
MADISON        FAIR      16  10  79 S7        30.16S WCI   6
MITCHELL       PTCLDY    27  16  63 N12       30.20R WCI  17
SIOUX FALLS    CLEAR     21  12  68 S13       30.21R WCI   9
WINNER         FAIR      21  -1  38 NW7       30.18R WCI  12
YANKTON        CLEAR     25  10  54 S16       30.24S WCI  12
$$

MNZ071-072-080-081-089-090-097-098-010300-
SOUTHWEST MINNESOTA

CITY           SKY/WX    TMP DP  RH WIND       PRES   REMARKS
FAIRMONT       CLOUDY    16  10  79 SE12      30.30F WCI   3
JACKSON        MOCLDY    18  12  79 S10       30.28S WCI   6
LUVERNE        CLEAR     19  14  79 S9        30.24S WCI   9
MARSHALL       CLEAR     18  10  73 S13       30.24F WCI   4
MONTEVIDEO     MOCLDY    18  14  86 S10       30.24F WCI   6
PIPESTONE      CLEAR     18  12  79 S13       30.19F WCI   4
REDWOOD FALLS  PTCLDY    16  10  77 S12       30.27F WCI   3
TRACY          CLEAR     18  13  79 S13G18    30.23S WCI   5
WINDOM         CLEAR     16  12  86 S8        30.26S WCI   5
WORTHINGTON    CLEAR     28   9  43 S14       30.26S WCI  17
$$

IAZ001>003-012>014-020>022-031-032-NEZ013-014-SDZ071-010300-
NORTHWEST IOWA

CITY           SKY/WX    TMP DP  RH WIND       PRES   REMARKS
CHEROKEE       CLOUDY    20  17  85 S10       30.32R WCI   9
DENISON        CLOUDY    19  16  86 S8        30.33R WCI   9
ESTHERVILLE    PTCLDY    16  10  77 S15       30.30S WCI   1
LE MARS        CLEAR     19  14  79 S12       30.30R WCI   7
ORANGE CITY    CLEAR     18  12  79 S10       30.27S WCI   6
SHELDON        CLEAR     14  10  85 S13       30.26S WCI   0
SIOUX CITY     CLEAR     21  14  74 S12       30.32R WCI   9
SPENCER        CLEAR     14   8  77 S9        30.30R WCI   2
STORM LAKE     FLURRIES  19  14  79 S15       30.31S WCI   5
$$

ABBREVIATIONS USED IN REMARKS
   TC - TEMPERATURE IN CELSIUS
  WCI - WIND CHILL INDEX
   HX - HEAT INDEX
  VSB - VISIBILITY




USA.gov is the U.S. government's official web portal to all federal, state and local government web resources and services.